Location: Caltech
(34.1382°N, 118.1253°W)
Time: 14:10:51
(UTC-07:00)

SL-08 RB Rocket - Visible Passes

Search period start: 04 May 2016 00:00
Search period end: 14 May 2016 00:00
Orbit: 648 x 685 km, 98.0° (Epoch: 03 May)

Date Brightness Start Highest point End Pass type
(mag) Time Alt. Az. Time Alt. Az. Time Alt. Az.
04 May 5.0 21:46:51 27° NE 21:46:51 27° NE 21:50:08 10° NNE visible
04 May 6.1 23:25:00 18° WNW 23:25:00 18° WNW 23:26:51 10° NW visible
05 May 4.5 22:18:56 47° NNE 22:18:56 47° NNE 22:22:23 10° N visible
06 May 5.8 21:12:51 13° ENE 21:13:00 13° ENE 21:14:59 10° NE visible
06 May 5.0 22:50:59 38° NW 22:50:59 38° NW 22:54:06 10° NNW visible
07 May 5.0 21:44:55 27° ENE 21:44:55 27° ENE 21:48:21 10° NNE visible
07 May 6.0 23:23:04 20° WNW 23:23:04 20° WNW 23:25:11 10° NW visible
08 May 4.3 22:16:59 49° NNE 22:16:59 49° NNE 22:20:38 10° N visible
09 May 5.8 21:10:55 12° ENE 21:11:18 12° ENE 21:13:04 10° NE visible
09 May 4.8 22:49:03 43° NW 22:49:03 43° NW 22:52:23 10° NNW visible
10 May 5.0 21:42:59 26° ENE 21:42:59 26° ENE 21:46:34 10° NNE visible
10 May 5.9 23:21:07 22° WNW 23:21:07 22° WNW 23:23:30 10° NW visible
11 May 4.2 22:15:03 51° NE 22:15:03 51° NE 22:18:54 10° N visible
12 May 5.9 21:08:59 11° ENE 21:09:36 11° ENE 21:11:07 10° NE visible
12 May 4.6 22:47:07 47° NW 22:47:07 47° NW 22:50:39 10° NNW visible
13 May 5.0 21:41:04 25° ENE 21:41:04 25° ENE 21:44:47 10° NNE visible
13 May 5.7 23:19:12 23° WNW 23:19:12 23° WNW 23:21:50 10° NW visible
